[[{"header":{"parameterUnit":"m.s-1","parameterCategory":1,"la1":30.2991,"la2":30.254,"lo1":-89.0895,"lo2":-89.0444,"dy":0.0017,"dx":0.0017,"nx":28,"ny":28,"refTime":"2024-12-06T03:00:00:Z","depth":0,"parameterNumber":2,"parameterNumberName":"U-component_of_WINDS"},"data":[0,0,0,0,0,0,0,0,0,0,0,0,0,0,0,0,0,0,0,0,0,0,0,0,0,0,0,0,0,0,0,0,0,0,0,0,0,0,0,0,0,0,0,0,0,0,0,0,0,0,0,0,0,0,0,0,0,0,-2.0902,-2.0903,0,-2.0947,-2.0948,-2.0948,-2.089,-2.0888,-2.0886,-2.0884,-2.093,-2.0933,-2.0936,0,0,0,0,0,0,0,0,0,0,0,0,0,-2.0764,-2.0767,-2.0902,-2.0903,-2.0903,-2.0947,-2.0948,-2.0948,-2.089,-2.0888,-2.0885,-2.0883,-2.0929,-2.0933,-2.0936,0,0,0,0,0,0,0,0,0,0,0,0,0,-2.0818,-2.0768,-2.0902,-2.088,-2.0878,-2.0947,-2.0948,-2.0949,-2.0891,-2.0888,-2.0885,-2.0882,-2.0928,-2.0932,-2.0937,-2.103,0,0,-2.0952,-2.0954,0,0,0,0,0,0,0,0,-2.0815,-2.0824,-2.0882,-2.0881,-2.088,-2.091,-2.0916,-2.0976,-2.0892,-2.0886,-2.0884,-2.088,-2.0926,-2.093,-2.0946,-2.1032,-2.1034,-2.0952,-2.0955,-2.0957,-2.0958,0,0,0,0,0,0,0,-2.0812,-2.0821,-2.092,-2.0883,-2.0882,-2.0867,-2.0871,-2.0927,-2.0923,-2.0886,-2.0882,-2.0888,-2.0924,-2.0941,-2.0947,-2.1035,-2.0952,-2.0956,-2.0959,-2.0961,-2.1199,-2.1202,0,0,0,0,0,0,-2.0811,-2.0819,-2.0918,-2.0921,-2.0839,-2.0872,-2.0877,-2.0903,-2.0922,-2.0922,-2.0891,-2.0885,-2.0935,-2.0941,-2.0948,-2.1058,-2.0957,-2.0961,-2.0964,-2.1195,-2.1199,-2.1203,0,0,0,0,0,0,-2.0808,-2.082,-2.0917,-2.0869,-2.088,-2.0878,-2.0908,-2.0906,-2.0923,-2.0926,-2.0925,-2.0909,-2.0933,-2.0941,-2.101,-2.1059,-2.0964,-2.0968,-2.1191,-2.1197,-2.1201,-2.1279,0,0,0,0,0,0,-2.0804,-2.082,-2.0855,-2.087,-2.0883,-2.0979,-2.0911,-2.0909,-2.0931,-2.0925,-2.0943,-2.0943,-2.0931,-2.1003,-2.1015,-2.1064,-2.0972,-2.1187,-2.1194,-2.12,-2.1273,-2.1287,-2.1299,0,0,0,0,0,-2.08,-2.0876,-2.0858,-2.087,-2.0928,-2.0982,-2.0989,-2.0974,-2.0936,-2.0971,-2.0973,-2.0942,-2.1051,-2.1011,-2.1023,-2.1075,-2.1184,-2.1192,-2.1199,-2.1267,-2.1284,-2.1298,0,0,0,0,0,0,-2.0867,-2.0877,-2.0857,-2.094,-2.0961,-2.0972,-2.1017,-2.0992,-2.1024,-2.1016,-2.0995,-2.1,-2.1073,-2.108,-2.1035,-2.1165,-2.1111,-2.1122,-2.1158,-2.1175,-2.1187,-2.1185,-2.0976,0,0,0,0,0,-2.0892,-2.0935,-2.0941,-2.1014,-2.1025,-2.1019,-2.1042,-2.1028,-2.1048,-2.1057,-2.1063,-2.1084,-2.1122,-2.1149,-2.1184,-2.1272,-2.1276,-2.1314,-2.1327,-2.1338,-2.1348,-2.1394,-2.1411,-2.1229,-2.1229,-2.1228,0,0,-2.0943,-2.0954,-2.0983,-2.1028,-2.1042,-2.1087,-2.1027,-2.1077,-2.111,-2.1064,-2.113,-2.1135,-2.1156,-2.1235,-2.127,-2.1243,-2.1398,-2.1347,-2.1356,-2.136,-2.1404,-2.1421,-2.1437,-2.1234,-2.1233,-2.1232,0,0,-2.106,-2.1073,-2.1134,-2.1149,-2.1171,-2.1166,-2.1181,-2.1196,-2.1198,-2.1263,-2.1229,-2.1267,-2.1335,-2.1351,-2.1368,-2.149,-2.1462,-2.1502,-2.1571,-2.1616,-2.1631,-2.1644,-2.1687,-2.1703,-2.1511,-2.1511,-2.1511,0,-2.1122,-2.1188,-2.1169,-2.1222,-2.1243,-2.1202,-2.1265,-2.128,-2.1312,-2.1327,-2.1297,-2.138,-2.1391,-2.1473,-2.1502,-2.1517,-2.1534,-2.15,-2.163,-2.1643,-2.1654,-2.1696,-2.1712,-2.1516,-2.1515,-2.1515,-2.1514,0,-2.1263,-2.1309,-2.1357,-2.1389,-2.1415,-2.1472,-2.1461,-2.1489,-2.1473,-2.1471,-2.1537,-2.1549,-2.1587,-2.1604,-2.1589,-2.1684,-2.1667,-2.1634,-2.1579,-2.1677,-2.1715,-2.1731,-2.1523,-2.1521,-2.152,-2.1518,0,0,-2.1426,-2.1445,-2.1463,-2.1477,-2.1497,-2.1533,-2.1587,-2.1624,-2.1648,-2.1671,-2.1717,-2.1774,-2.1743,-2.1762,-2.1748,-2.1788,-2.1883,-2.1749,-2.175,-2.1775,-2.1989,-2.2015,-2.2033,-2.1864,-2.1867,-2.187,-2.1987,0,-2.1543,-2.1639,-2.1622,-2.1715,-2.1757,-2.1719,-2.1766,-2.1783,-2.1783,-2.1818,-2.1817,-2.1858,-2.1814,-2.1825,-2.1863,-2.1864,-2.1926,-2.1855,-2.1907,-2.1909,-2.1904,-2.2053,-2.2081,-2.2191,-2.2002,-2.2005,-2.2006,0,-2.1693,-2.1722,-2.1819,-2.1831,-2.1849,-2.1892,-2.1923,-2.1958,-2.1976,-2.1972,-2.1994,-2.1971,-2.2025,-2.1969,-2.2043,-2.1995,-2.2014,-2.2018,-2.2021,-2.2027,-2.1965,-2.2064,-2.2226,-2.2243,-2.203,-2.2028,-2.2026,0,-2.1804,-2.1866,-2.1932,-2.1944,-2.1961,-2.1992,-2.2,-2.2015,-2.2037,-2.2064,-2.2079,-2.2112,-2.213,-2.2156,-2.2143,-2.2103,-2.2219,-2.2162,-2.2218,-2.2218,-2.2246,-2.2244,-2.2415,-2.2257,-2.2256,-2.2256,-2.2256,0,-2.1937,-2.1998,-2.1981,-2.2022,-2.2089,-2.2069,-2.2135,-2.2138,-2.2152,-2.2192,-2.2159,-2.2198,-2.2178,-2.2214,-2.2204,-2.2267,-2.2275,-2.2273,-2.227,-2.2277,-2.2278,-2.2291,-2.2284,-2.226,-2.2259,-2.2259,-2.2258,0,-2.2072,-2.2063,-2.2133,-2.2142,-2.2145,-2.2194,-2.2202,-2.2239,-2.2235,-2.2287,-2.2297,-2.2291,-2.2332,-2.2321,-2.2366,-2.2359,-2.2439,-2.2425,-2.2433,-2.243,-2.2487,-2.2482,-2.2673,-2.2697,-2.2523,-2.2524,-2.2526,0,-2.2159,-2.2205,-2.2219,-2.2243,-2.2254,-2.2294,-2.2317,-2.2298,-2.2323,-2.2346,-2.2381,-2.2419,-2.2449,-2.2516,-2.2515,-2.2549,-2.2537,-2.2601,-2.2542,-2.2547,-2.2539,-2.2537,-2.2541,-2.2614,-2.2616,-2.2617,-2.2619,0,-2.2314,-2.2307,-2.2341,-2.2374,-2.2401,-2.2426,-2.2447,-2.2469,-2.2452,-2.2481,-2.2523,-2.2546,-2.2591,-2.2629,-2.266,-2.2667,-2.2641,-2.2637,-2.2652,-2.266,-2.2663,-2.2663,-2.2466,-2.2633,-2.2632,-2.2631,-2.263,-2.2629,-2.2428,-2.2467,-2.2483,-2.2521,-2.2535,-2.2556,-2.2592,-2.2592,-2.2626,-2.2662,-2.2648,-2.2696,-2.2711,-2.2749,-2.2761,-2.2797,-2.2773,-2.2794,-2.28,-2.2806,-2.2813,-2.2656,-2.2803,-2.2802,-2.2802,-2.2801,-2.2801,0,-2.2582,-2.259,-2.2626,-2.2657,-2.2687,-2.2658,-2.268,-2.2707,-2.2749,-2.2766,-2.2796,-2.2843,-2.288,-2.2881,-2.2915,-2.2944,-2.2933,-2.2954,-2.2952,-2.2954,-2.2833,-2.2817,-2.2963,-2.2963,-2.2963,-2.2962,-2.2962,-2.2962,-2.2666,-2.273,-2.2725,-2.2795,-2.2802,-2.2849,-2.2864,-2.2882,-2.2895,-2.295,-2.298,-2.298,-2.2991,-2.3025,-2.3057,-2.3056,-2.3071,-2.3097,-2.3092,-2.2979,-2.2963,-2.2948,-2.2933,-2.31,-2.31,-2.321,-2.3211,-2.3212]},{"header":{"parameterUnit":"m.s-1","parameterCategory":1,"la1":30.2991,"la2":30.254,"lo1":-89.0895,"lo2":-89.0444,"dy":0.0017,"dx":0.0017,"nx":28,"ny":28,"refTime":"2024-12-06T03:00:00:Z","depth":0,"parameterNumber":3,"parameterNumberName":"V-component_of_WINDS"},"data":[0,0,0,0,0,0,0,0,0,0,0,0,0,0,0,0,0,0,0,0,0,0,0,0,0,0,0,0,0,0,0,0,0,0,0,0,0,0,0,0,0,0,0,0,0,0,0,0,0,0,0,0,0,0,0,0,0,0,-8.1579,-8.1581,0,-8.1707,-8.1708,-8.1709,-8.1619,-8.1615,-8.1611,-8.1607,-8.173,-8.1736,-8.1743,0,0,0,0,0,0,0,0,0,0,0,0,0,-8.125,-8.1257,-8.1579,-8.1581,-8.1583,-8.1706,-8.1708,-8.171,-8.1619,-8.1614,-8.1609,-8.1605,-8.1727,-8.1736,-8.1744,0,0,0,0,0,0,0,0,0,0,0,0,0,-8.1387,-8.1259,-8.1579,-8.1552,-8.1551,-8.1706,-8.1708,-8.171,-8.162,-8.1614,-8.1608,-8.1603,-8.1725,-8.1735,-8.1745,-8.1931,0,0,-8.1777,-8.1782,0,0,0,0,0,0,0,0,-8.1379,-8.1399,-8.1555,-8.1555,-8.1554,-8.1641,-8.1637,-8.1784,-8.1622,-8.1594,-8.1607,-8.16,-8.1704,-8.1716,-8.1753,-8.1936,-8.1942,-8.1778,-8.1785,-8.1789,-8.1792,0,0,0,0,0,0,0,-8.137,-8.1393,-8.1629,-8.1557,-8.1556,-8.1531,-8.1544,-8.1664,-8.1681,-8.1596,-8.159,-8.1606,-8.1703,-8.1743,-8.1755,-8.1944,-8.1778,-8.1787,-8.1794,-8.1798,-8.2284,-8.229,0,0,0,0,0,0,-8.1364,-8.1385,-8.1625,-8.1633,-8.145,-8.1542,-8.1557,-8.1619,-8.168,-8.1683,-8.1611,-8.1602,-8.1728,-8.1743,-8.1759,-8.198,-8.1789,-8.1799,-8.1805,-8.2277,-8.2285,-8.2293,0,0,0,0,0,0,-8.1357,-8.1386,-8.162,-8.1508,-8.1536,-8.1555,-8.1625,-8.1624,-8.1665,-8.1691,-8.1693,-8.165,-8.1724,-8.1744,-8.1889,-8.1983,-8.1804,-8.1813,-8.227,-8.228,-8.2289,-8.2423,0,0,0,0,0,0,-8.1348,-8.1384,-8.1457,-8.151,-8.1542,-8.1751,-8.1631,-8.1631,-8.1684,-8.1672,-8.1728,-8.1731,-8.1721,-8.1874,-8.1899,-8.1994,-8.1821,-8.2261,-8.2274,-8.2286,-8.241,-8.2436,-8.2459,0,0,0,0,0,-8.1336,-8.1488,-8.1461,-8.149,-8.1634,-8.1756,-8.1774,-8.1761,-8.1692,-8.1764,-8.1781,-8.173,-8.1969,-8.1889,-8.1917,-8.2017,-8.2255,-8.227,-8.2285,-8.2399,-8.2431,-8.2458,0,0,0,0,0,0,-8.1442,-8.1494,-8.1465,-8.1639,-8.1694,-8.1741,-8.1831,-8.1795,-8.1869,-8.1855,-8.1833,-8.1846,-8.1998,-8.2021,-8.1932,-8.2199,-8.21,-8.2122,-8.2178,-8.2208,-8.2232,-8.2223,-8.183,0,0,0,0,0,-8.1486,-8.1584,-8.1623,-8.1773,-8.1802,-8.1813,-8.1865,-8.185,-8.1906,-8.1928,-8.1955,-8.2009,-8.2096,-8.2153,-8.2235,-8.2413,-8.2423,-8.2495,-8.2519,-8.2539,-8.2557,-8.2652,-8.2684,-8.2341,-8.2341,-8.2341,0,0,-8.1577,-8.1618,-8.1681,-8.1795,-8.1836,-8.1935,-8.1832,-8.1942,-8.2014,-8.1943,-8.2082,-8.2105,-8.2162,-8.2325,-8.2398,-8.2349,-8.2654,-8.2558,-8.2573,-8.2581,-8.2671,-8.2703,-8.2732,-8.2351,-8.235,-8.2348,0,0,-8.1794,-8.1836,-8.1964,-8.2008,-8.2073,-8.2078,-8.2109,-8.2162,-8.2175,-8.2314,-8.2263,-8.2347,-8.2498,-8.2541,-8.2583,-8.2816,-8.2771,-8.2843,-8.2969,-8.3062,-8.3089,-8.3112,-8.3195,-8.3224,-8.2861,-8.2862,-8.2862,0,-8.1898,-8.2049,-8.2034,-8.2149,-8.2199,-8.2142,-8.2271,-8.2313,-8.24,-8.2435,-8.238,-8.2568,-8.2603,-8.2774,-8.2832,-8.2868,-8.29,-8.2836,-8.3086,-8.311,-8.3132,-8.321,-8.3241,-8.287,-8.2869,-8.2868,-8.2867,0,-8.2173,-8.2278,-8.2374,-8.2462,-8.2524,-8.2644,-8.2646,-8.271,-8.269,-8.27,-8.2842,-8.2882,-8.2971,-8.301,-8.299,-8.3179,-8.3146,-8.309,-8.299,-8.3173,-8.3246,-8.3276,-8.2882,-8.2879,-8.2876,-8.2874,0,0,-8.2459,-8.2539,-8.2575,-8.2614,-8.2681,-8.276,-8.2877,-8.2966,-8.302,-8.3082,-8.3178,-8.3307,-8.3255,-8.3303,-8.3287,-8.3369,-8.355,-8.3301,-8.3302,-8.3345,-8.3758,-8.38,-8.3835,-8.3521,-8.3526,-8.3531,-8.3752,0,-8.2679,-8.2887,-8.2877,-8.307,-8.3166,-8.3113,-8.3214,-8.3265,-8.3278,-8.3359,-8.3372,-8.3464,-8.3388,-8.3417,-8.3495,-8.3511,-8.3632,-8.3495,-8.3608,-8.3612,-8.3595,-8.3873,-8.3918,-8.4125,-8.3781,-8.3786,-8.3789,0,-8.2963,-8.3037,-8.3241,-8.3293,-8.3333,-8.3425,-8.3505,-8.3584,-8.364,-8.3643,-8.3697,-8.3668,-8.3784,-8.3683,-8.3841,-8.3748,-8.3793,-8.3808,-8.3815,-8.3825,-8.3711,-8.3889,-8.4191,-8.4222,-8.3834,-8.3831,-8.3827,0,-8.3151,-8.3301,-8.3442,-8.3477,-8.3542,-8.3608,-8.3637,-8.3687,-8.3741,-8.381,-8.3845,-8.3926,-8.397,-8.4032,-8.4025,-8.3952,-8.4185,-8.4084,-8.419,-8.419,-8.424,-8.4237,-8.4553,-8.4271,-8.4271,-8.427,-8.427,0,-8.3397,-8.3523,-8.3527,-8.3614,-8.3753,-8.374,-8.3877,-8.3899,-8.3944,-8.4032,-8.399,-8.4073,-8.4059,-8.4141,-8.4136,-8.4267,-8.4287,-8.4291,-8.4288,-8.4295,-8.4294,-8.4324,-8.4309,-8.4279,-8.4277,-8.4275,-8.4274,0,-8.3629,-8.3638,-8.3788,-8.3838,-8.3853,-8.3953,-8.3995,-8.4075,-8.4085,-8.4197,-8.4222,-8.4237,-8.4331,-8.4331,-8.4438,-8.4434,-8.4595,-8.4575,-8.4577,-8.4573,-8.4678,-8.4668,-8.5024,-8.5069,-8.4759,-8.4762,-8.4764,0,-8.3785,-8.3882,-8.3943,-8.4,-8.4035,-8.4127,-8.4183,-8.4173,-8.4231,-8.4302,-8.4374,-8.4465,-8.4538,-8.4691,-8.4709,-8.479,-8.4772,-8.4891,-8.4784,-8.4787,-8.4773,-8.4767,-8.4776,-8.4912,-8.4915,-8.4918,-8.492,0,-8.4061,-8.4061,-8.4144,-8.4229,-8.4297,-8.4362,-8.4423,-8.4471,-8.4467,-8.4535,-8.4633,-8.469,-8.48,-8.489,-8.4969,-8.4996,-8.4958,-8.4954,-8.4983,-8.499,-8.4987,-8.4989,-8.4633,-8.4946,-8.4943,-8.4941,-8.494,-8.4939,-8.426,-8.4343,-8.4399,-8.4492,-8.4537,-8.4595,-8.4673,-8.4694,-8.4776,-8.4867,-8.4855,-8.4964,-8.5015,-8.5117,-8.5151,-8.5234,-8.5192,-8.5234,-8.5244,-8.5254,-8.5266,-8.4975,-8.5248,-8.5248,-8.5247,-8.5246,-8.5246,0,-8.4532,-8.4566,-8.4653,-8.474,-8.4813,-8.4773,-8.4838,-8.4901,-8.4998,-8.505,-8.5123,-8.5235,-8.5322,-8.5348,-8.5432,-8.5493,-8.5477,-8.5515,-8.551,-8.5517,-8.5299,-8.5266,-8.5527,-8.5527,-8.5527,-8.5527,-8.5526,-8.5526,-8.4683,-8.4821,-8.4827,-8.4986,-8.5018,-8.5127,-8.5167,-8.5219,-8.5261,-8.5388,-8.5462,-8.5479,-8.552,-8.5607,-8.5684,-8.5689,-8.5721,-8.5767,-8.5764,-8.556,-8.5532,-8.5505,-8.5474,-8.5774,-8.5774,-8.5975,-8.5977,-8.5978]}]]